Colby, KS

6:27 PM CST on November 20, 2019 (GMT -0600)
Shaltz

Weather History for KCBK - September, 2019

Change the Weather History Date:

Tuesday, September 17, 2019

  Actual Average (KGLD) Record (KGLD)
Temperature  
Mean Temperature 80 °F 64 °F  
Max Temperature 95 °F 79 °F 99 °F (1947)
Min Temperature 66 °F 50 °F 32 °F (1981)
Degree Days  
Heating Degree Days 0 4  
Month to date heating degree days 35  
Since 1 July heating degree days 47  
Cooling Degree Days 16 3  
Month to date cooling degree days 78  
Year to date cooling degree days 911  
Growing Degree Days 30 (Base 50)    
Moisture  
Dew Point 51 °F    
Average Humidity 42    
Maximum Humidity 64    
Minimum Humidity 14    
Precipitation  
Precipitation 0.00 in 0.03 in 0.86 in (1971)
Month to date precipitation 0.71  
Year to date precipitation 16.61  
Snow  
Snow 0.00 in 0.00 in - ()
Month to date snowfall 0.1  
Since 1 July snowfall 0.1  
Since 1 September snowfall 0.1  
Snow Depth -    
Sea Level Pressure  
Sea Level Pressure 29.89 in    
Wind  
Wind Speed 17 mph (South)    
Max Wind Speed 24 mph    
Max Gust Speed 37 mph    
Visibility 10 miles    
Events      
T = Trace of Precipitation, MM = Missing Value Source: NWS Daily Summary

Daily Weather History Graph

Daily Weather History Graph

Search for Another Location

Airport or City:

Astronomy

Sep. 17, 2019 Rise Set
Actual Time 7:27 AM CDT 7:49 PM CDT
Civil Twilight 7:00 AM CDT 8:16 PM CDT
Nautical Twilight 6:28 AM CDT 8:48 PM CDT
Astronomical Twilight 5:56 AM CDT 9:20 PM CDT
Moon 9:54 PM CDT (9/17) 10:32 AM CDT (9/17)
Length of Visible Light 13h 16m
Length of Day
12h 22m
Waning Gibbous, 89% of the Moon is Illuminated
Sep 17
Waning Gibbous
Sep 21
Last Quarter
Sep 28
New
Oct 5
First Quarter
Oct 13
Full

Hourly Weather History & Observations

Time (CDT) Temp. Heat Index Dew Point Humidity Pressure Visibility Wind Dir Wind Speed Gust Speed Precip Events Conditions
12:15 AM 73.4 °F - 51.8 °F 47% 29.95 in 10.0 mi South 16.1 mph 24.2 mph N/A   Clear
12:35 AM 73.4 °F - 53.6 °F 50% 29.95 in 10.0 mi South 15.0 mph 23.0 mph N/A   Clear
12:55 AM 71.6 °F - 53.6 °F 53% 29.95 in 10.0 mi South 17.3 mph 21.9 mph N/A   Clear
1:15 AM 71.6 °F - 53.6 °F 53% 29.95 in 10.0 mi South 15.0 mph 19.6 mph N/A   Clear
1:35 AM 71.6 °F - 53.6 °F 53% 29.95 in 10.0 mi South 16.1 mph - N/A   Clear
1:55 AM 71.6 °F - 53.6 °F 53% 29.94 in 10.0 mi South 17.3 mph 23.0 mph N/A   Clear
2:15 AM 71.6 °F - 53.6 °F 53% 29.94 in 10.0 mi South 16.1 mph 23.0 mph N/A   Clear
2:35 AM 71.6 °F - 53.6 °F 53% 29.93 in 10.0 mi South 12.7 mph 20.7 mph N/A   Clear
2:55 AM 69.8 °F - 53.6 °F 56% 29.93 in 10.0 mi South 13.8 mph 19.6 mph N/A   Clear
3:15 AM 69.8 °F - 53.6 °F 56% 29.93 in 10.0 mi South 15.0 mph - N/A   Clear
3:35 AM 69.8 °F - 53.6 °F 56% 29.93 in 10.0 mi South 17.3 mph 23.0 mph N/A   Clear
3:55 AM 69.8 °F - 53.6 °F 56% 29.92 in 10.0 mi South 17.3 mph 21.9 mph N/A   Clear
4:15 AM 69.8 °F - 53.6 °F 56% 29.92 in 10.0 mi South 16.1 mph 23.0 mph N/A   Clear
4:35 AM 69.8 °F - 53.6 °F 56% 29.92 in 10.0 mi South 15.0 mph - N/A   Clear
4:55 AM 68.0 °F - 53.6 °F 60% 29.92 in 10.0 mi SSE 15.0 mph - N/A   Clear
5:15 AM 68.0 °F - 53.6 °F 60% 29.91 in 10.0 mi SSE 12.7 mph 19.6 mph N/A   Clear
5:35 AM 68.0 °F - 53.6 °F 60% 29.91 in 10.0 mi South 17.3 mph 21.9 mph N/A   Clear
5:55 AM 68.0 °F - 53.6 °F 60% 29.91 in 10.0 mi SSE 17.3 mph 23.0 mph N/A   Clear
6:15 AM 68.0 °F - 53.6 °F 60% 29.91 in 10.0 mi South 16.1 mph 23.0 mph N/A   Clear
6:35 AM 66.2 °F - 53.6 °F 64% 29.91 in 10.0 mi South 13.8 mph 20.7 mph N/A   Clear
6:55 AM 66.2 °F - 53.6 °F 64% 29.91 in 10.0 mi South 13.8 mph 21.9 mph N/A   Clear
7:15 AM 66.2 °F - 53.6 °F 64% 29.92 in 10.0 mi South 11.5 mph 17.3 mph N/A   Clear
7:35 AM 66.2 °F - 53.6 °F 64% 29.92 in 10.0 mi South 15.0 mph - N/A   Clear
7:55 AM 66.2 °F - 53.6 °F 64% 29.92 in 10.0 mi South 17.3 mph 24.2 mph N/A   Clear
8:15 AM 68.0 °F - 53.6 °F 60% 29.92 in 10.0 mi South 16.1 mph 21.9 mph N/A   Clear
8:35 AM 68.0 °F - 53.6 °F 60% 29.91 in 10.0 mi South 20.7 mph 25.3 mph N/A   Clear
9:15 AM 69.8 °F - 53.6 °F 56% 29.91 in 10.0 mi South 20.7 mph 26.5 mph N/A   Clear
9:35 AM 71.6 °F - 53.6 °F 53% 29.91 in 10.0 mi South 17.3 mph 24.2 mph N/A   Clear
9:55 AM 73.4 °F - 53.6 °F 50% 29.91 in 10.0 mi South 20.7 mph 27.6 mph N/A   Clear
10:15 AM 73.4 °F - 53.6 °F 50% 29.91 in 10.0 mi South 17.3 mph 28.8 mph N/A   Clear
10:35 AM 77.0 °F - 53.6 °F 44% 29.91 in 10.0 mi South 19.6 mph 28.8 mph N/A   Clear
10:55 AM 78.8 °F - 53.6 °F 42% 29.91 in 10.0 mi South 20.7 mph 27.6 mph N/A   Clear
11:15 AM 80.6 °F 80.3 °F 53.6 °F 39% 29.91 in 10.0 mi South 20.7 mph 27.6 mph N/A   Clear
11:35 AM 82.4 °F - 51.8 °F 35% 29.90 in 10.0 mi South 16.1 mph 25.3 mph N/A   Clear
11:55 AM 82.4 °F - 51.8 °F 35% 29.89 in 10.0 mi South 15.0 mph 23.0 mph N/A   Clear
12:15 PM 84.2 °F - 51.8 °F 33% 29.89 in 10.0 mi South 19.6 mph 28.8 mph N/A   Clear
1:15 PM 87.8 °F - 50.0 °F 27% 29.87 in 10.0 mi South 18.4 mph 27.6 mph N/A   Clear
1:35 PM 87.8 °F - 48.2 °F 25% 29.86 in 10.0 mi South 20.7 mph 31.1 mph N/A   Clear
1:55 PM 91.4 °F - 48.2 °F 23% 29.86 in 10.0 mi SSW 19.6 mph 25.3 mph N/A   Clear
2:15 PM 91.4 °F - 46.4 °F 21% 29.85 in 10.0 mi SSW 15.0 mph 31.1 mph N/A   Clear
2:35 PM 91.4 °F - 44.6 °F 20% 29.84 in 10.0 mi SSW 18.4 mph 28.8 mph N/A   Clear
2:55 PM 91.4 °F - 44.6 °F 20% 29.84 in 10.0 mi South 19.6 mph 33.4 mph N/A   Clear
3:15 PM 93.2 °F - 42.8 °F 17% 29.84 in 10.0 mi South 21.9 mph 36.8 mph N/A   Clear
3:35 PM 93.2 °F - 44.6 °F 19% 29.84 in 10.0 mi South 23.0 mph 27.6 mph N/A   Clear
3:55 PM 91.4 °F - 44.6 °F 20% 29.84 in 10.0 mi South 18.4 mph 27.6 mph N/A   Clear
4:15 PM 93.2 °F - 42.8 °F 17% 29.83 in 10.0 mi South 16.1 mph 25.3 mph N/A   Clear
4:35 PM 93.2 °F - 42.8 °F 17% 29.82 in 10.0 mi SSW 16.1 mph 31.1 mph N/A   Clear
4:55 PM 93.2 °F - 41.0 °F 16% 29.82 in 10.0 mi South 17.3 mph 25.3 mph N/A   Clear
5:15 PM 95.0 °F - 39.2 °F 14% 29.81 in 10.0 mi South 18.4 mph 25.3 mph N/A   Scattered Clouds
5:35 PM 91.4 °F - 48.2 °F 23% 29.81 in 10.0 mi South 24.2 mph 33.4 mph N/A   Scattered Clouds
5:55 PM 87.8 °F - 50.0 °F 27% 29.82 in 10.0 mi South 23.0 mph 28.8 mph N/A   Scattered Clouds
6:15 PM 87.8 °F - 48.2 °F 25% 29.82 in 10.0 mi South 19.6 mph 28.8 mph N/A   Scattered Clouds
6:35 PM 87.8 °F - 50.0 °F 27% 29.82 in 10.0 mi South 19.6 mph 27.6 mph N/A   Scattered Clouds
6:55 PM 86.0 °F - 48.2 °F 27% 29.82 in 10.0 mi South 15.0 mph 25.3 mph N/A   Scattered Clouds
7:15 PM 86.0 °F - 48.2 °F 27% 29.83 in 10.0 mi South 16.1 mph 23.0 mph N/A   Clear
7:35 PM 82.4 °F - 50.0 °F 32% 29.84 in 10.0 mi South 16.1 mph 21.9 mph N/A   Clear
7:55 PM 80.6 °F - 50.0 °F 34% 29.84 in 10.0 mi South 15.0 mph 21.9 mph N/A   Clear
8:15 PM 80.6 °F - 50.0 °F 34% 29.84 in 10.0 mi South 17.3 mph 24.2 mph N/A   Clear
8:35 PM 80.6 °F - 50.0 °F 34% 29.85 in 10.0 mi South 15.0 mph 21.9 mph N/A   Clear
8:55 PM 80.6 °F - 51.8 °F 37% 29.86 in 10.0 mi South 16.1 mph 24.2 mph N/A   Clear
9:15 PM 78.8 °F - 51.8 °F 39% 29.86 in 10.0 mi South 17.3 mph 24.2 mph N/A   Clear
9:35 PM 78.8 °F - 51.8 °F 39% 29.87 in 10.0 mi South 16.1 mph - N/A   Clear
9:55 PM 77.0 °F - 51.8 °F 41% 29.87 in 10.0 mi SSE 15.0 mph - N/A   Clear
10:15 PM 77.0 °F - 51.8 °F 41% 29.88 in 10.0 mi South 17.3 mph - N/A   Clear
10:35 PM 77.0 °F - 51.8 °F 41% 29.88 in 10.0 mi South 15.0 mph 21.9 mph N/A   Clear
10:55 PM 77.0 °F - 51.8 °F 41% 29.88 in 10.0 mi South 17.3 mph 21.9 mph N/A   Clear
11:15 PM 77.0 °F - 51.8 °F 41% 29.89 in 10.0 mi South 18.4 mph 24.2 mph N/A   Clear
11:35 PM 75.2 °F - 53.6 °F 47% 29.89 in 10.0 mi South 17.3 mph 24.2 mph N/A   Clear
11:55 PM 75.2 °F - 53.6 °F 47% 29.89 in 10.0 mi South 17.3 mph 24.2 mph N/A   Clear